Wind_Speed
41 42 42 42 42 43 43 42 42 42 41 41 41 40 40 40 39 39 39 38 38 38 38 37 37 37 37 37 37 36 36 36 37 37 37 38 38 37 37 37 37 37 37
42 43 43 43 43 43 43 43 42 42 42 42 42 41 41 41 40 40 39 39 38 38 38 39 38 37 38 38 38 37 38 37 37 37 38 38 38 38 38 38 38 39 38
43 43 44 43 43 44 44 44 43 42 42 42 42 42 42 41 40 40 40 39 39 38 38 39 38 37 37 37 38 38 38 38 38 38 39 39 38 38 39 39 40 40 40
43 43 43 43 44 44 44 44 44 43 43 43 42 42 42 41 41 41 40 40 39 38 38 39 39 39 39 38 38 38 38 38 39 39 40 40 40 39 39 40 40 41 41
43 44 44 44 44 44 44 44 45 44 43 43 42 42 42 42 42 42 41 40 39 38 38 38 39 38 38 38 38 38 38 38 39 39 40 40 41 41 41 40 41 41 42
42 43 44 44 44 45 45 44 45 45 44 43 43 42 42 42 42 42 42 41 40 38 37 38 38 37 37 38 38 38 39 38 38 38 39 40 41 41 41 41 41 42 42
43 43 43 43 43 43 44 44 45 45 44 44 44 43 43 43 42 42 41 41 40 40 38 38 38 38 38 38 38 38 39 39 39 39 39 40 41 41 41 41 41 42 42
42 43 43 43 43 43 44 44 44 45 44 44 44 44 42 42 41 41 41 41 40 40 40 39 38 38 38 39 39 39 39 39 40 39 39 40 40 40 41 41 42 43 43
42 42 43 43 42 43 44 44 44 44 44 44 45 44 43 41 41 41 41 41 40 40 40 40 40 40 39 39 39 39 39 39 39 39 39 39 40 41 42 43 43 44 44
42 42 42 42 42 43 43 43 43 43 43 44 44 44 44 41 41 42 41 41 41 40 40 39 40 40 41 40 40 40 39 39 39 39 40 40 40 41 42 43 44 44 44
42 41 40 41 41 42 42 42 42 42 43 43 43 43 43 42 41 41 42 42 41 40 39 40 40 40 40 41 40 40 40 40 40 40 41 41 41 41 42 43 44 44 45
40 40 40 40 41 42 42 41 41 42 43 43 43 43 43 42 41 41 42 42 42 41 41 41 41 40 41 41 41 41 42 41 41 41 41 41 42 42 42 43 43 44 45
39 39 39 39 40 41 41 41 41 42 42 42 42 42 43 42 41 42 42 42 43 42 41 41 41 42 41 41 41 41 42 42 42 42 42 42 42 43 43 44 45 45 45
36 37 38 38 39 39 40 40 41 41 42 43 42 42 42 42 42 42 42 42 43 42 42 42 42 42 42 42 42 42 42 42 41 41 42 42 43 43 43 44 45 45 46
35 36 36 36 37 37 38 39 41 41 42 43 43 43 43 43 42 42 42 42 42 42 42 41 42 42 42 42 42 41 41 41 41 42 42 43 43 44 43 44 44 45 46
34 35 35 36 36 37 37 38 39 40 40 42 43 44 43 43 43 43 43 43 42 42 41 41 40 40 40 40 41 41 41 42 42 42 43 43 43 43 43 44 44 45 45
33 34 34 35 35 36 37 37 38 38 39 39 41 42 43 43 43 44 43 43 42 40 40 40 39 39 39 40 40 41 41 41 42 42 42 42 42 42 42 43 44 44 45
30 31 32 32 33 35 36 37 37 37 37 37 39 40 41 41 42 43 42 42 42 41 40 40 40 40 40 40 40 40 40 41 41 41 41 41 42 42 43 43 43 44 44
27 28 30 30 30 31 32 34 35 35 36 36 37 38 39 39 39 40 40 40 40 40 40 40 40 40 40 40 40 40 40 40 40 40 41 41 41 42 42 42 43 42 42
26 27 28 28 29 29 31 32 33 33 34 35 36 36 37 37 38 38 38 39 39 40 40 39 39 39 40 40 40 40 40 40 40 41 41 41 41 40 40 41 41 40 40
26 27 27 27 27 28 29 29 30 30 31 32 33 34 35 36 36 37 37 37 38 38 39 39 39 39 39 39 39 39 39 39 39 39 40 40 39 39 39 40 40 40 40
25 26 27 27 27 27 27 28 29 29 29 30 30 31 33 35 36 36 36 36 36 37 38 38 38 38 37 38 38 38 39 39 38 38 38 38 38 38 39 40 40 40 39
25 26 27 27 27 27 27 28 28 29 29 29 30 30 31 32 34 35 36 36 36 36 37 38 39 39 38 38 38 38 38 38 38 38 38 38 38 39 39 39 39 38 37
24 24 25 27 27 28 28 28 28 28 28 29 29 29 30 31 32 33 33 34 34 35 35 35 36 37 37 38 37 37 37 38 37 37 37 37 37 37 37 37 37 37 36
24 25 25 26 27 29 29 29 29 29 29 29 29 29 29 29 30 30 31 32 33 33 33 34 34 35 35 35 35 35 35 35 34 34 35 35 36 36 36 36 36 35 35
24 25 25 26 27 28 28 29 30 30 30 29 28 28 28 28 29 29 30 30 30 31 32 32 33 33 33 33 33 33 33 34 34 34 35 35 36 35 35 36 36 35 35
Wind_Direction
247 247 247 248 248 247 247 248 249 250 250 251 251 251 252 253 253 253 252 252 252 254 255 256 257 256 256 256 257 257 258 259 259 259 259 259 260 261 262 263 265 266 266
247 248 248 248 248 248 248 248 248 249 250 251 251 252 252 251 251 252 252 252 253 254 255 257 256 256 256 256 257 258 259 260 260 260 261 261 262 263 263 265 266 266 266
247 248 248 248 249 249 248 247 247 248 250 251 251 251 250 249 249 251 251 252 253 255 256 256 255 254 257 257 257 259 260 260 261 261 262 262 262 263 264 265 266 266 267
248 248 248 249 250 250 249 248 247 248 249 250 251 250 249 248 248 250 251 252 253 254 256 255 254 254 256 258 259 259 261 262 261 262 262 263 262 263 264 265 265 265 266
250 249 249 250 250 249 250 249 248 248 249 250 250 249 248 248 248 249 251 252 252 254 256 255 253 254 256 257 259 259 261 263 263 263 263 263 264 264 265 265 265 266 266
250 250 250 249 249 248 249 249 249 248 248 249 249 248 248 248 248 249 250 250 251 252 254 254 252 253 255 257 258 260 260 263 264 264 264 265 265 266 265 266 266 267 267
249 249 250 249 249 249 248 249 249 248 248 248 248 248 248 248 248 249 249 250 251 251 253 253 252 252 254 257 258 259 261 262 263 264 265 266 266 266 266 267 268 268 269
249 249 250 249 249 249 249 248 248 248 248 248 247 246 247 247 248 248 248 250 250 250 251 253 253 253 254 257 258 260 261 263 263 264 267 267 267 267 268 268 269 270 270
250 250 250 250 250 249 249 249 248 248 248 246 245 245 247 246 246 247 248 248 249 250 251 252 253 253 255 257 259 260 262 263 264 265 267 268 268 269 269 270 270 271 271
250 250 251 250 250 249 249 249 248 247 246 245 245 245 245 245 246 247 248 248 248 249 251 253 253 254 255 257 259 261 262 263 264 266 268 270 271 271 271 271 271 271 271
250 249 250 250 249 248 248 248 247 246 245 244 244 244 245 245 248 248 248 248 249 250 252 254 255 255 256 258 259 261 263 263 265 266 269 270 271 272 272 271 271 271 272
249 248 248 248 248 246 246 247 246 245 244 243 243 244 244 247 249 248 248 248 249 250 253 254 255 256 256 258 260 262 263 263 265 267 268 271 272 272 273 273 273 274 274
246 246 246 248 248 246 247 247 245 244 243 242 243 244 244 246 248 248 248 249 249 251 253 254 255 255 258 260 261 263 263 264 266 267 269 271 273 274 274 275 275 275 275
245 245 245 246 246 247 246 245 245 244 244 242 242 244 245 246 247 248 248 248 249 250 252 254 255 256 258 259 260 262 264 265 267 268 270 272 273 274 275 276 276 276 277
244 244 243 244 245 244 244 245 246 246 245 244 244 245 246 245 245 246 247 248 249 249 251 253 255 256 258 259 261 262 264 266 267 269 271 272 274 274 276 276 277 277 278
245 244 243 244 246 245 246 247 247 246 246 246 246 245 246 246 245 245 246 247 249 250 251 252 253 255 257 259 261 262 264 266 268 270 271 272 274 275 276 277 278 279 279
246 244 243 243 244 244 246 248 247 245 246 246 246 246 246 246 245 245 246 247 249 250 251 252 253 254 256 259 261 263 265 267 269 271 272 273 274 275 277 278 280 280 280
247 245 243 244 244 244 245 247 247 245 246 246 246 247 247 246 246 245 246 247 249 249 251 252 253 255 258 260 262 264 266 268 269 270 270 272 273 274 276 279 281 281 281
247 244 241 243 244 245 245 244 245 247 248 247 247 246 245 245 245 245 245 246 247 249 251 253 254 256 258 260 262 264 266 268 268 269 270 272 273 275 277 279 282 282 282
246 245 243 243 244 245 244 244 245 247 248 248 247 246 245 244 244 245 245 246 247 249 252 252 254 257 258 260 262 264 266 267 269 270 271 272 274 275 278 281 283 283 282
247 247 246 245 243 243 242 243 246 247 248 248 248 245 244 244 244 245 246 247 248 249 251 253 254 256 258 259 262 263 265 267 269 270 271 272 274 276 278 281 283 284 285
248 248 247 246 245 244 243 243 246 246 248 247 247 246 246 245 245 245 246 247 248 250 251 252 254 256 257 259 261 263 265 267 268 269 271 273 274 275 278 282 284 285 286
252 250 248 246 246 246 245 246 245 245 246 246 246 246 247 247 248 248 248 249 250 252 252 254 254 255 257 259 261 264 266 267 268 269 272 274 275 277 279 282 284 284 284
255 253 252 250 248 247 248 249 247 246 246 246 246 247 248 249 250 249 249 250 251 251 253 254 255 256 258 260 263 265 266 268 269 270 272 274 276 277 279 281 281 282 283
258 257 256 254 252 251 249 249 249 248 248 249 249 248 248 249 249 250 251 252 252 253 253 255 256 257 259 262 264 266 267 268 269 270 271 273 275 276 277 279 279 280 281
258 258 258 257 255 252 250 251 250 249 249 249 249 248 247 248 249 250 251 252 252 253 254 255 257 258 260 261 262 263 265 268 269 270 271 273 275 276 276 278 279 279 280
Height
5699 5703 5706 5710 5713 5717 5720 5724 5727 5730 5733 5736 5739 5742 5744 5746 5749 5751 5753 5755 5757 5759 5761 5763 5764 5766 5767 5769 5771 5772 5774 5775 5776 5778 5779 5781 5782 5784 5785 5786 5787 5788 5789
5690 5693 5696 5700 5703 5706 5710 5713 5717 5720 5723 5726 5729 5732 5734 5737 5739 5741 5744 5746 5748 5750 5751 5753 5755 5756 5758 5760 5761 5763 5765 5766 5767 5769 5770 5772 5774 5774 5775 5777 5778 5778 5779
5679 5682 5686 5690 5693 5696 5700 5703 5706 5710 5712 5715 5718 5721 5724 5726 5729 5732 5734 5737 5739 5740 5741 5743 5745 5747 5749 5751 5752 5754 5756 5757 5758 5759 5761 5762 5764 5765 5766 5767 5768 5769 5770
5669 5672 5675 5679 5682 5686 5689 5692 5695 5699 5702 5705 5708 5710 5713 5717 5719 5722 5724 5727 5729 5730 5731 5733 5735 5738 5740 5742 5743 5745 5746 5747 5749 5750 5751 5753 5754 5755 5757 5758 5758 5759 5760
5658 5661 5665 5668 5671 5674 5678 5681 5684 5688 5691 5694 5697 5700 5703 5706 5709 5712 5714 5716 5719 5720 5722 5723 5725 5728 5731 5733 5734 5736 5737 5738 5739 5740 5741 5742 5744 5745 5746 5748 5748 5749 5750
5647 5650 5654 5657 5660 5663 5666 5670 5673 5677 5680 5683 5686 5689 5692 5695 5698 5701 5704 5706 5709 5711 5713 5714 5717 5719 5722 5724 5725 5727 5728 5729 5730 5731 5732 5732 5733 5734 5736 5737 5738 5739 5740
5636 5639 5642 5646 5649 5652 5655 5659 5662 5666 5669 5672 5675 5679 5682 5685 5688 5691 5693 5696 5699 5701 5704 5706 5708 5711 5713 5715 5716 5717 5719 5720 5721 5721 5722 5723 5723 5724 5725 5726 5727 5728 5729
5625 5628 5631 5634 5637 5640 5644 5647 5651 5654 5658 5661 5665 5668 5671 5674 5677 5680 5683 5686 5689 5692 5694 5697 5699 5701 5704 5706 5707 5708 5710 5710 5711 5712 5712 5713 5713 5714 5715 5716 5717 5718 5719
5614 5617 5620 5623 5626 5629 5632 5636 5639 5643 5646 5650 5654 5657 5661 5664 5667 5670 5673 5676 5679 5682 5685 5687 5690 5692 5694 5696 5698 5699 5700 5701 5702 5702 5703 5703 5704 5704 5705 5705 5706 5707 5708
5603 5606 5610 5612 5615 5618 5621 5624 5628 5631 5635 5639 5643 5647 5651 5654 5657 5660 5663 5666 5669 5672 5675 5678 5680 5683 5685 5686 5688 5689 5690 5691 5692 5693 5693 5694 5694 5694 5694 5695 5695 5696 5696
5592 5595 5599 5602 5604 5607 5610 5614 5617 5620 5624 5628 5632 5637 5640 5644 5647 5650 5653 5657 5660 5663 5666 5668 5671 5673 5675 5677 5679 5680 5681 5682 5682 5683 5684 5684 5684 5684 5684 5684 5684 5684 5685
5580 5584 5588 5591 5594 5597 5600 5603 5606 5610 5614 5618 5622 5626 5630 5633 5637 5640 5643 5647 5650 5653 5656 5658 5661 5663 5665 5667 5669 5670 5671 5672 5672 5673 5674 5674 5674 5673 5673 5673 5673 5673 5673
5570 5573 5577 5580 5583 5587 5590 5593 5596 5600 5604 5607 5612 5616 5620 5623 5626 5630 5633 5636 5639 5643 5645 5648 5650 5653 5655 5657 5659 5660 5661 5662 5662 5663 5663 5663 5663 5663 5662 5662 5661 5661 5661
5560 5563 5567 5570 5574 5577 5580 5583 5586 5590 5593 5597 5601 5605 5609 5612 5616 5619 5622 5626 5629 5632 5635 5638 5640 5642 5644 5647 5648 5649 5650 5651 5652 5652 5653 5653 5652 5652 5651 5650 5650 5649 5649
5551 5554 5558 5561 5564 5567 5570 5573 5576 5579 5583 5587 5590 5594 5598 5602 5605 5609 5612 5615 5619 5622 5625 5627 5630 5632 5634 5636 5637 5638 5639 5640 5641 5641 5641 5641 5641 5640 5639 5639 5638 5637 5636
5542 5545 5549 5552 5554 5557 5560 5563 5566 5569 5573 5576 5580 5583 5587 5591 5594 5598 5602 5605 5609 5612 5614 5617 5619 5621 5623 5625 5626 5627 5628 5629 5630 5631 5630 5630 5629 5629 5628 5627 5626 5625 5624
5533 5536 5539 5543 5545 5548 5551 5554 5557 5560 5563 5566 5570 5573 5577 5580 5584 5588 5591 5595 5598 5601 5604 5606 5609 5611 5613 5614 5615 5617 5618 5619 5619 5619 5619 5619 5618 5618 5617 5616 5614 5613 5611
5525 5528 5530 5534 5537 5539 5542 5545 5547 5550 5553 5557 5560 5563 5566 5570 5574 5578 5581 5585 5588 5591 5594 5596 5599 5601 5603 5604 5605 5606 5607 5607 5608 5608 5608 5608 5608 5607 5606 5605 5604 5602 5600
5518 5520 5523 5525 5528 5531 5533 5536 5539 5541 5544 5547 5550 5553 5556 5560 5564 5567 5571 5574 5578 5581 5583 5586 5588 5590 5592 5593 5594 5595 5596 5597 5597 5597 5597 5597 5597 5596 5595 5594 5593 5591 5589
5511 5513 5515 5517 5520 5522 5525 5527 5530 5533 5535 5538 5541 5543 5546 5550 5554 5557 5561 5564 5567 5570 5573 5575 5577 5579 5581 5582 5583 5584 5585 5586 5587 5587 5587 5586 5586 5585 5584 5583 5582 5580 5578
5504 5506 5508 5510 5512 5514 5517 5519 5521 5524 5527 5529 5532 5534 5537 5540 5544 5548 5551 5554 5557 5560 5562 5565 5567 5569 5570 5572 5573 5574 5574 5575 5575 5576 5576 5575 5575 5574 5573 5572 5570 5568 5566
5496 5498 5500 5502 5504 5506 5509 5511 5513 5515 5518 5521 5523 5526 5529 5532 5535 5538 5541 5544 5547 5549 5552 5554 5556 5558 5560 5561 5562 5563 5563 5564 5565 5565 5565 5565 5564 5563 5562 5561 5559 5557 5555
5489 5491 5493 5495 5497 5499 5501 5504 5506 5508 5511 5513 5515 5518 5521 5523 5526 5529 5532 5534 5537 5539 5542 5544 5546 5548 5549 5551 5552 5552 5553 5553 5554 5554 5554 5554 5553 5553 5552 5550 5548 5547 5545
5482 5484 5485 5487 5489 5491 5493 5496 5498 5500 5503 5505 5507 5510 5512 5515 5517 5520 5522 5524 5527 5529 5531 5533 5535 5537 5538 5540 5541 5542 5542 5543 5543 5544 5544 5543 5543 5542 5541 5540 5538 5537 5536
5475 5477 5478 5480 5481 5483 5486 5488 5490 5492 5495 5497 5499 5501 5504 5506 5508 5511 5513 5515 5518 5519 5522 5523 5525 5527 5528 5529 5530 5531 5532 5533 5533 5533 5534 5533 5533 5532 5531 5530 5529 5527 5526
5468 5469 5471 5472 5474 5475 5477 5479 5482 5484 5486 5489 5491 5493 5495 5498 5500 5502 5504 5506 5508 5510 5512 5513 5515 5516 5518 5519 5520 5521 5522 5522 5523 5523 5524 5523 5523 5522 5521 5520 5519 5518 5516